SCP
0 0 0 0 0 0 0 0 0 0 0 0 0 0 0 0 0 0 0 0 0 0 0 0 0 0 0 0 0 0 0 0 0 0 0 0 0 0 0 0 -0 0 0 0 0
0 0 0 0 0 0 0 0 0 0 0 0 0 0 0 0 0 0 0 0 0 0 0 0 0 0 0 0 0 0 0 0 0 0 0 0 0 0 0 0 0 0 0 0 1
0 0 0 0 0 0 0 0 0 0 0 0 0 0 0 0 -0 -0 0 0 0 0 0 0 0 0 0 0 0 0 0 0 0 0 0 0 0 0 0 0 0 0 0 2 2
0 0 0 0 0 0 0 0 0 0 0 0 0 0 0 0 0 0 0 0 0 0 0 0 0 0 0 0 0 0 0 0 0 0 0 0 0 0 0 0 -0 0 -0 0 0
0 0 0 0 0 0 0 0 0 0 0 0 0 0 0 0 0 -0 0 0 0 0 0 0 0 0 0 0 0 0 0 0 0 0 0 0 0 0 0 0 0 0 0 -0 0
0 0 0 0 0 0 0 0 0 0 0 0 0 0 0 0 0 0 -0 0 0 0 0 0 0 0 0 0 0 0 0 0 0 0 -0 0 0 0 0 0 0 0 0 -0 -0
0 0 0 0 0 0 0 0 0 0 0 0 0 0 0 0 0 0 0 0 0 0 0 0 0 0 0 0 0 0 0 0 0 0 0 0 0 0 0 0 0 0 0 0 0
0 0 0 0 0 0 0 0 0 0 0 0 0 0 0 0 0 0 0 0 0 0 0 0 0 0 0 0 0 0 0 0 0 0 0 0 0 0 0 0 0 0 0 0 0
0 0 0 0 0 0 0 0 0 0 0 0 0 0 0 0 0 0 0 0 0 0 0 0 0 0 0 0 0 0 0 0 0 0 0 0 0 0 0 0 0 0 0 0 0
0 0 0 0 0 0 0 0 0 0 0 0 0 0 0 0 -0 0 0 0 0 0 0 0 0 0 0 0 0 0 0 0 0 0 0 0 0 0 0 0 0 0 -0 0 0
0 0 0 0 0 0 0 0 0 0 0 0 0 0 0 0 0 0 0 0 0 0 0 0 0 0 0 0 0 0 0 0 0 0 0 0 0 0 0 0 0 0 -0 -0 0
0 0 0 0 0 0 0 0 0 0 0 0 0 0 0 0 0 0 0 0 0 0 0 0 0 0 0 0 0 0 0 0 0 0 0 0 0 0 0 0 0 0 -0 -0 0
0 0 0 0 0 0 0 0 0 0 0 -0 0 -0 0 0 0 0 0 0 0 0 0 0 0 0 0 0 0 0 0 0 0 0 0 0 0 0 0 0 0 0 0 0 0
0 0 0 0 0 0 0 0 0 0 0 -0 -0 0 0 0 0 0 0 0 0 0 0 0 0 0 0 0 0 0 0 0 0 0 0 0 0 0 0 0 0 0 0 0 0
0 0 0 0 0 0 0 0 0 0 -0 -0 -0 -0 0 0 0 -0 0 0 0 0 0 0 0 0 0 0 0 0 0 0 0 0 0 0 0 0 -0 0 0 0 0 0 0
0 0 0 0 0 0 0 0 0 0 0 -0 -0 -0 0 0 0 0 0 0 0 0 0 0 0 0 0 0 0 0 0 0 0 0 0 0 0 0 0 0 0 0 0 0 0
0 -0 0 0 0 0 0 0 0 0 -0 -0 -0 0 -0 0 0 0 0 0 0 0 0 0 0 0 0 0 0 0 0 0 0 0 -0 0 0 -0 0 -0 -0 0 0 0 0
-0 -0 0 0 0 0 0 0 0 0 0 -0 0 -0 0 0 0 0 0 0 0 0 0 0 0 0 0 0 0 0 0 0 0 -0 -0 0 0 -0 0 0 0 0 0 0 0
-0 0 0 0 0 0 0 0 0 0 0 0 -0 0 0 0 0 0 0 0 0 0 0 0 0 0 0 0 0 0 0 0 0 0 0 0 0 0 0 0 0 0 0 0 0
0 0 0 0 0 0 0 0 0 0 -0 0 0 0 0 0 0 0 0 0 0 0 0 0 0 0 -0 -0 0 0 0 0 0 0 0 0 -0 0 0 -0 0 0 0 0 0
0 0 0 0 0 0 0 0 -0 0 0 0 0 0 0 0 0 0 0 0 0 0 -0 0 0 0 0 -0 0 0 0 0 0 0 -0 -0 0 0 0 -0 0 0 -0 -0 0
0 0 0 0 0 0 0 0 0 -0 -0 0 0 0 0 0 0 0 0 0 0 -0 -0 0 0 0 0 0 0 0 0 0 -0 -0 0 -0 -0 -0 0 0 -0 0 -0 -0 -0
0 0 0 0 0 0 0 0 -0 0 0 0 0 0 0 0 0 0 -0 0 0 -0 0 0 0 0 0 0 0 0 0 0 0 0 -0 -0 -0 0 0 0 0 -0 0 0 -0
0 0 0 0 0 0 0 -0 0 0 0 0 -0 0 0 0 0 0 0 0 0 -0 0 0 0 0 0 0 0 0 0 0 0 0 0 0 0 -0 0 0 0 0 0 0 -0
0 0 0 0 0 0 0 0 0 0 0 0 -0 -0 0 0 0 0 0 0 0 -0 0 0 0 0 0 0 0 0 0 0 0 0 0 0 0 0 0 0 0 0 0 0 -0
0 0 0 0 0 -0 0 0 0 0 0 0 -0 0 0 0 0 0 0 0 0 0 0 0 0 0 0 0 0 0 0 0 0 0 0 0 0 -0 0 0 0 0 0 0 0
0 0 0 0 0 0 0 -0 0 0 0 0 0 0 0 0 0 0 0 0 0 0 0 0 0 0 0 0 0 0 0 0 0 0 -0 0 0 0 -0 -0 0 0 0 0 0
Wind_Speed_500mb
39 38 39 40 43 37 38 38 40 39 39 39 38 37 36 40 47 44 59 49 32 33 28 23 36 50 39 31 32 28 6 15 14 12 5 39 12 25 49 15 26 15 13 15 69
41 41 41 42 43 41 43 44 42 40 40 39 38 36 34 37 47 62 50 44 45 42 39 39 34 51 34 33 19 14 12 15 11 12 4 18 17 21 14 9 11 46 27 16 57
44 45 45 47 45 44 43 44 47 47 37 38 36 36 33 31 44 49 12 6 30 47 45 47 31 36 31 26 25 10 16 5 8 39 42 20 23 31 9 4 17 31 39 13 17
46 48 50 53 51 53 51 49 47 43 46 37 39 35 30 21 12 24 14 18 12 46 45 39 45 16 15 19 20 9 12 21 14 36 20 10 30 15 11 13 22 31 30 7 17
50 50 52 54 56 54 49 48 46 44 42 43 36 34 32 29 55 28 26 13 13 34 52 43 41 26 12 12 20 17 7 13 30 51 47 25 12 7 18 11 19 24 31 31 28
52 54 54 55 55 56 55 54 51 46 45 44 40 37 43 51 76 63 69 59 25 28 49 50 27 51 10 19 40 12 42 35 49 52 35 21 13 14 33 32 32 22 17 27 37
59 60 60 60 59 59 59 59 61 59 57 52 47 41 60 66 53 30 25 39 34 38 42 51 52 36 25 6 50 51 10 17 38 41 14 10 17 12 21 29 34 27 19 1 8
56 54 54 56 58 60 59 57 61 66 65 62 51 40 58 47 65 76 61 60 52 51 54 42 52 43 11 16 13 23 7 28 22 21 15 23 41 13 23 31 44 32 24 14 15
58 52 56 55 54 57 61 65 70 75 71 66 41 33 39 40 56 68 62 63 54 55 54 48 46 27 12 8 8 9 24 13 11 17 8 19 27 9 25 29 43 52 38 39 40
59 58 60 56 56 55 56 62 68 48 28 14 28 14 47 40 25 15 20 61 50 36 46 58 29 12 11 11 20 7 10 7 13 9 13 12 7 8 14 22 27 47 51 52 48
65 62 59 58 59 55 56 58 18 6 15 23 23 38 49 19 18 34 27 37 48 27 25 52 27 35 34 20 9 3 11 16 11 17 13 15 11 14 16 30 25 41 48 43 41
65 65 62 56 55 56 51 34 27 19 26 47 63 74 88 72 48 64 31 35 31 28 36 27 43 25 24 19 23 24 12 10 7 13 23 15 19 15 14 16 26 42 48 52 54
66 64 61 62 65 45 16 31 26 34 16 46 69 68 76 66 65 84 34 35 38 34 39 31 27 33 32 31 31 32 25 8 8 11 1 4 11 5 12 26 49 57 65 61 58
71 68 67 67 49 16 45 29 25 24 9 16 9 17 8 36 32 60 64 35 23 43 31 26 18 47 36 42 31 31 16 16 8 10 8 5 15 11 12 35 37 51 56 60 53
76 79 72 53 58 57 42 7 18 6 9 8 9 7 43 35 12 32 59 38 41 29 26 24 46 41 47 33 31 19 17 16 15 10 9 10 3 13 8 34 42 40 69 69 58
87 82 59 33 28 35 13 13 16 4 14 8 3 20 34 32 53 12 39 39 32 28 27 22 48 33 33 33 36 12 11 9 3 10 10 12 7 31 26 48 35 22 51 60 61
87 47 21 22 28 14 5 7 2 6 13 4 11 24 38 13 38 40 36 33 19 31 32 41 32 40 25 29 18 28 15 5 3 4 24 16 13 40 18 37 43 33 45 61 63
72 25 22 25 33 11 11 7 11 11 13 29 29 15 13 16 16 37 29 35 33 10 23 33 26 37 33 16 24 26 20 11 10 11 12 11 24 15 23 56 49 54 52 57 58
60 9 9 14 36 9 14 7 8 9 14 22 35 5 9 11 16 29 26 38 35 32 13 27 23 21 31 18 31 13 13 17 10 1 8 11 18 29 34 28 13 31 47 48 37
51 18 16 26 35 23 4 10 9 14 35 36 19 5 8 15 14 15 24 17 44 31 15 9 13 17 33 29 24 19 17 8 6 11 10 3 10 4 32 22 15 21 33 45 56
32 17 22 28 31 1 6 10 23 34 31 6 7 4 8 6 6 8 14 7 42 38 28 3 7 14 32 29 28 9 12 11 11 9 11 2 12 9 26 49 29 20 55 67 71
28 9 31 35 5 1 6 10 16 20 14 22 9 15 11 6 4 4 8 10 38 41 29 7 7 1 15 15 32 19 17 13 11 5 5 7 13 28 44 13 31 45 68 80 75
29 12 25 33 12 11 12 16 13 17 17 7 10 12 7 8 7 14 15 29 27 29 21 11 2 4 7 8 7 14 11 14 11 8 12 11 6 28 44 18 30 61 62 67 80
17 8 15 12 32 15 15 14 25 32 11 19 12 9 5 5 16 8 9 5 24 27 20 24 6 11 11 11 7 11 13 16 15 8 13 10 12 2 37 15 24 49 57 65 77
27 8 9 13 21 29 18 8 18 18 18 29 4 19 9 3 3 3 8 12 15 38 9 12 5 6 15 17 12 15 9 12 11 21 12 20 22 32 20 16 18 50 64 67 72
17 11 17 31 35 29 16 12 15 20 7 13 25 20 18 8 8 7 11 5 10 7 10 8 3 9 15 21 17 13 28 18 25 20 17 35 23 40 28 12 24 52 43 48 58
33 40 18 19 17 20 21 23 15 28 13 16 17 4 12 9 14 9 8 16 8 7 8 9 8 7 5 18 6 14 17 16 14 15 43 25 29 31 19 24 18 40 34 34 52
Wind_Direction_500mb
330 331 332 332 324 321 318 314 311 304 297 296 294 296 300 300 288 282 269 263 266 240 236 215 221 213 218 233 216 212 182 219 219 217 248 302 330 299 306 291 47 9 40 276 188
324 326 328 329 326 321 315 313 307 307 305 300 298 293 299 303 299 281 278 276 253 247 227 210 205 198 207 222 219 188 206 228 202 226 257 278 325 347 289 288 47 29 58 107 168
320 320 323 325 325 321 317 313 307 305 300 300 300 298 300 305 309 285 126 228 249 213 220 206 193 191 216 216 206 212 230 213 207 242 262 274 305 343 275 45 86 62 35 165 157
320 318 320 318 317 317 314 310 306 303 300 294 296 295 293 286 256 157 131 82 14 192 199 202 202 193 182 215 211 247 248 237 270 270 268 253 262 279 342 76 84 81 62 97 221
317 316 312 311 311 314 314 314 308 302 304 297 287 290 284 246 239 201 209 347 2 197 199 191 202 195 174 189 241 243 265 258 243 258 265 278 252 260 265 263 21 62 62 54 225
305 306 306 304 307 308 307 308 305 301 301 303 291 280 266 253 258 252 255 266 286 220 206 204 205 206 211 208 196 233 227 251 253 250 262 242 241 212 254 267 310 12 45 71 81
308 304 302 300 299 298 299 301 302 299 294 300 298 269 262 245 254 254 241 235 217 231 224 215 206 184 215 259 229 235 250 221 236 244 212 170 272 223 247 287 304 343 356 79 136
323 320 311 304 299 296 296 296 293 292 291 296 297 265 263 260 268 266 241 239 213 209 218 236 219 217 225 283 341 204 190 236 233 229 219 190 257 220 263 295 294 304 331 324 307
324 325 320 317 311 303 298 292 284 288 290 288 272 243 272 267 249 255 245 237 217 217 227 221 211 210 215 153 322 229 224 212 222 221 151 189 250 236 236 271 282 286 294 305 300
332 327 321 319 316 315 313 306 301 298 281 230 232 246 253 240 258 277 261 218 210 194 210 207 190 171 193 153 211 233 165 196 206 256 192 209 227 272 246 268 267 286 292 291 298
335 331 326 321 318 314 314 320 343 300 214 208 208 223 264 269 295 273 266 195 200 207 182 199 196 205 203 193 237 266 199 202 208 227 167 208 206 230 249 270 266 274 282 278 286
331 330 328 325 322 317 302 280 271 330 287 264 253 248 256 266 281 268 239 163 180 191 180 179 210 192 207 182 202 240 227 219 255 190 198 221 237 228 231 242 250 269 264 270 271
334 333 329 326 320 320 294 277 312 317 270 281 251 243 243 235 243 263 224 192 182 185 194 190 201 181 193 205 204 218 219 177 179 173 267 105 294 271 270 255 258 257 259 264 267
336 331 329 328 324 296 288 290 287 317 287 276 225 15 246 233 261 248 231 216 176 199 195 216 181 182 197 212 202 215 184 208 209 147 197 97 263 282 263 259 252 246 249 249 249
338 332 327 321 302 294 318 288 14 6 281 301 56 69 326 206 227 234 219 224 194 166 182 190 184 187 197 204 198 219 188 194 218 189 138 161 98 247 298 271 249 246 240 240 246
339 335 332 337 317 356 30 8 347 208 250 303 56 341 344 301 223 301 168 208 221 181 194 207 183 187 198 209 201 179 165 180 195 185 240 178 175 272 257 241 258 219 227 230 240
343 347 352 341 329 351 345 1 227 175 320 257 346 354 325 269 209 224 171 187 189 170 193 203 218 197 176 194 205 183 141 225 224 210 236 124 228 238 258 244 232 237 223 226 227
349 10 64 38 345 322 162 57 232 247 254 303 350 353 319 328 224 214 177 188 216 155 180 187 213 187 201 183 193 196 166 146 168 206 247 139 251 244 238 248 254 235 214 196 206
350 355 341 337 359 235 147 196 238 272 333 321 335 337 323 346 8 172 224 193 200 197 147 179 209 198 207 192 182 189 168 181 135 285 185 219 272 274 254 252 200 155 171 182 180
351 349 325 334 336 178 152 249 249 289 313 306 299 246 341 328 338 153 160 246 193 191 196 122 182 199 209 199 215 159 167 113 26 161 239 287 314 301 354 258 143 128 151 124 144
4 347 347 337 336 158 281 266 290 285 293 256 212 230 249 293 327 332 157 246 185 189 197 84 101 217 182 204 199 144 171 72 117 148 174 58 271 259 325 322 150 138 126 128 129
0 331 340 340 24 230 277 271 295 292 282 235 260 204 207 212 275 265 212 232 182 202 199 174 95 296 196 193 201 177 177 142 128 211 118 138 273 357 332 280 131 130 132 136 134
340 293 347 352 355 333 295 295 291 299 298 236 227 180 165 193 215 225 194 235 187 185 184 161 296 352 79 63 3 151 158 153 116 108 191 132 272 0 321 8 111 126 132 134 132
1 333 333 332 337 327 318 328 332 316 316 318 62 153 117 228 211 277 175 217 236 188 152 133 167 154 172 179 165 128 164 152 142 128 160 169 127 209 287 2 68 101 112 117 122
15 337 333 309 332 335 332 278 326 350 327 357 32 15 351 212 43 130 9 353 287 147 94 113 123 81 53 23 82 30 170 168 148 146 134 178 149 151 266 7 10 100 110 115 118
4 340 309 294 306 333 348 333 327 325 271 5 19 10 10 54 2 47 30 341 78 2 96 23 79 58 27 360 56 67 28 59 87 103 68 124 123 144 267 69 48 72 86 111 118
353 341 290 299 324 346 339 341 321 351 328 359 343 331 337 326 297 282 236 267 284 354 99 80 99 63 18 334 5 36 350 326 84 143 139 144 146 151 156 100 32 70 98 123 123
Wind_Speed_850mb
39 38 39 40 43 37 38 38 40 39 39 39 38 37 36 40 47 44 59 49 32 33 28 23 36 50 39 31 32 28 6 15 14 12 5 39 12 25 49 15 26 15 13 15 69
41 41 41 42 43 41 43 44 42 40 40 39 38 36 34 37 47 62 50 44 45 42 39 39 34 51 34 33 19 14 12 15 11 12 4 18 17 21 14 9 11 46 27 16 57
44 45 45 47 45 44 43 44 47 47 37 38 36 36 33 31 44 49 12 6 30 47 45 47 31 36 31 26 25 10 16 5 8 39 42 20 23 31 9 4 17 31 39 13 17
46 48 50 53 51 53 51 49 47 43 46 37 39 35 30 21 12 24 14 18 12 46 45 39 45 16 15 19 20 9 12 21 14 36 20 10 30 15 11 13 22 31 30 7 17
50 50 52 54 56 54 49 48 46 44 42 43 36 34 32 29 55 28 26 13 13 34 52 43 41 26 12 12 20 17 7 13 30 51 47 25 12 7 18 11 19 24 31 31 28
52 54 54 55 55 56 55 54 51 46 45 44 40 37 43 51 76 63 69 59 25 28 49 50 27 51 10 19 40 12 42 35 49 52 35 21 13 14 33 32 32 22 17 27 37
59 60 60 60 59 59 59 59 61 59 57 52 47 41 60 66 53 30 25 39 34 38 42 51 52 36 25 6 50 51 10 17 38 41 14 10 17 12 21 29 34 27 19 1 8
56 54 54 56 58 60 59 57 61 66 65 62 51 40 58 47 65 76 61 60 52 51 54 42 52 43 11 16 13 23 7 28 22 21 15 23 41 13 23 31 44 32 24 14 15
58 52 56 55 54 57 61 65 70 75 71 66 41 33 39 40 56 68 62 63 54 55 54 48 46 27 12 8 8 9 24 13 11 17 8 19 27 9 25 29 43 52 38 39 40
59 58 60 56 56 55 56 62 68 48 28 14 28 14 47 40 25 15 20 61 50 36 46 58 29 12 11 11 20 7 10 7 13 9 13 12 7 8 14 22 27 47 51 52 48
65 62 59 58 59 55 56 58 18 6 15 23 23 38 49 19 18 34 27 37 48 27 25 52 27 35 34 20 9 3 11 16 11 17 13 15 11 14 16 30 25 41 48 43 41
65 65 62 56 55 56 51 34 27 19 26 47 63 74 88 72 48 64 31 35 31 28 36 27 43 25 24 19 23 24 12 10 7 13 23 15 19 15 14 16 26 42 48 52 54
66 64 61 62 65 45 16 31 26 34 16 46 69 68 76 66 65 84 34 35 38 34 39 31 27 33 32 31 31 32 25 8 8 11 1 4 11 5 12 26 49 57 65 61 58
71 68 67 67 49 16 45 29 25 24 9 16 9 17 8 36 32 60 64 35 23 43 31 26 18 47 36 42 31 31 16 16 8 10 8 5 15 11 12 35 37 51 56 60 53
76 79 72 53 58 57 42 7 18 6 9 8 9 7 43 35 12 32 59 38 41 29 26 24 46 41 47 33 31 19 17 16 15 10 9 10 3 13 8 34 42 40 69 69 58
87 82 59 33 28 35 13 13 16 4 14 8 3 20 34 32 53 12 39 39 32 28 27 22 48 33 33 33 36 12 11 9 3 10 10 12 7 31 26 48 35 22 51 60 61
87 47 21 22 28 14 5 7 2 6 13 4 11 24 38 13 38 40 36 33 19 31 32 41 32 40 25 29 18 28 15 5 3 4 24 16 13 40 18 37 43 33 45 61 63
72 25 22 25 33 11 11 7 11 11 13 29 29 15 13 16 16 37 29 35 33 10 23 33 26 37 33 16 24 26 20 11 10 11 12 11 24 15 23 56 49 54 52 57 58
60 9 9 14 36 9 14 7 8 9 14 22 35 5 9 11 16 29 26 38 35 32 13 27 23 21 31 18 31 13 13 17 10 1 8 11 18 29 34 28 13 31 47 48 37
51 18 16 26 35 23 4 10 9 14 35 36 19 5 8 15 14 15 24 17 44 31 15 9 13 17 33 29 24 19 17 8 6 11 10 3 10 4 32 22 15 21 33 45 56
32 17 22 28 31 1 6 10 23 34 31 6 7 4 8 6 6 8 14 7 42 38 28 3 7 14 32 29 28 9 12 11 11 9 11 2 12 9 26 49 29 20 55 67 71
28 9 31 35 5 1 6 10 16 20 14 22 9 15 11 6 4 4 8 10 38 41 29 7 7 1 15 15 32 19 17 13 11 5 5 7 13 28 44 13 31 45 68 80 75
29 12 25 33 12 11 12 16 13 17 17 7 10 12 7 8 7 14 15 29 27 29 21 11 2 4 7 8 7 14 11 14 11 8 12 11 6 28 44 18 30 61 62 67 80
17 8 15 12 32 15 15 14 25 32 11 19 12 9 5 5 16 8 9 5 24 27 20 24 6 11 11 11 7 11 13 16 15 8 13 10 12 2 37 15 24 49 57 65 77
27 8 9 13 21 29 18 8 18 18 18 29 4 19 9 3 3 3 8 12 15 38 9 12 5 6 15 17 12 15 9 12 11 21 12 20 22 32 20 16 18 50 64 67 72
17 11 17 31 35 29 16 12 15 20 7 13 25 20 18 8 8 7 11 5 10 7 10 8 3 9 15 21 17 13 28 18 25 20 17 35 23 40 28 12 24 52 43 48 58
33 40 18 19 17 20 21 23 15 28 13 16 17 4 12 9 14 9 8 16 8 7 8 9 8 7 5 18 6 14 17 16 14 15 43 25 29 31 19 24 18 40 34 34 52
Wind_Direction_850mb
330 331 332 332 324 321 318 314 311 304 297 296 294 296 300 300 288 282 269 263 266 240 236 215 221 213 218 233 216 212 182 219 219 217 248 302 330 299 306 291 47 9 40 276 188
324 326 328 329 326 321 315 313 307 307 305 300 298 293 299 303 299 281 278 276 253 247 227 210 205 198 207 222 219 188 206 228 202 226 257 278 325 347 289 288 47 29 58 107 168
320 320 323 325 325 321 317 313 307 305 300 300 300 298 300 305 309 285 126 228 249 213 220 206 193 191 216 216 206 212 230 213 207 242 262 274 305 343 275 45 86 62 35 165 157
320 318 320 318 317 317 314 310 306 303 300 294 296 295 293 286 256 157 131 82 14 192 199 202 202 193 182 215 211 247 248 237 270 270 268 253 262 279 342 76 84 81 62 97 221
317 316 312 311 311 314 314 314 308 302 304 297 287 290 284 246 239 201 209 347 2 197 199 191 202 195 174 189 241 243 265 258 243 258 265 278 252 260 265 263 21 62 62 54 225
305 306 306 304 307 308 307 308 305 301 301 303 291 280 266 253 258 252 255 266 286 220 206 204 205 206 211 208 196 233 227 251 253 250 262 242 241 212 254 267 310 12 45 71 81
308 304 302 300 299 298 299 301 302 299 294 300 298 269 262 245 254 254 241 235 217 231 224 215 206 184 215 259 229 235 250 221 236 244 212 170 272 223 247 287 304 343 356 79 136
323 320 311 304 299 296 296 296 293 292 291 296 297 265 263 260 268 266 241 239 213 209 218 236 219 217 225 283 341 204 190 236 233 229 219 190 257 220 263 295 294 304 331 324 307
324 325 320 317 311 303 298 292 284 288 290 288 272 243 272 267 249 255 245 237 217 217 227 221 211 210 215 153 322 229 224 212 222 221 151 189 250 236 236 271 282 286 294 305 300
332 327 321 319 316 315 313 306 301 298 281 230 232 246 253 240 258 277 261 218 210 194 210 207 190 171 193 153 211 233 165 196 206 256 192 209 227 272 246 268 267 286 292 291 298
335 331 326 321 318 314 314 320 343 300 214 208 208 223 264 269 295 273 266 195 200 207 182 199 196 205 203 193 237 266 199 202 208 227 167 208 206 230 249 270 266 274 282 278 286
331 330 328 325 322 317 302 280 271 330 287 264 253 248 256 266 281 268 239 163 180 191 180 179 210 192 207 182 202 240 227 219 255 190 198 221 237 228 231 242 250 269 264 270 271
334 333 329 326 320 320 294 277 312 317 270 281 251 243 243 235 243 263 224 192 182 185 194 190 201 181 193 205 204 218 219 177 179 173 267 105 294 271 270 255 258 257 259 264 267
336 331 329 328 324 296 288 290 287 317 287 276 225 15 246 233 261 248 231 216 176 199 195 216 181 182 197 212 202 215 184 208 209 147 197 97 263 282 263 259 252 246 249 249 249
338 332 327 321 302 294 318 288 14 6 281 301 56 69 326 206 227 234 219 224 194 166 182 190 184 187 197 204 198 219 188 194 218 189 138 161 98 247 298 271 249 246 240 240 246
339 335 332 337 317 356 30 8 347 208 250 303 56 341 344 301 223 301 168 208 221 181 194 207 183 187 198 209 201 179 165 180 195 185 240 178 175 272 257 241 258 219 227 230 240
343 347 352 341 329 351 345 1 227 175 320 257 346 354 325 269 209 224 171 187 189 170 193 203 218 197 176 194 205 183 141 225 224 210 236 124 228 238 258 244 232 237 223 226 227
349 10 64 38 345 322 162 57 232 247 254 303 350 353 319 328 224 214 177 188 216 155 180 187 213 187 201 183 193 196 166 146 168 206 247 139 251 244 238 248 254 235 214 196 206
350 355 341 337 359 235 147 196 238 272 333 321 335 337 323 346 8 172 224 193 200 197 147 179 209 198 207 192 182 189 168 181 135 285 185 219 272 274 254 252 200 155 171 182 180
351 349 325 334 336 178 152 249 249 289 313 306 299 246 341 328 338 153 160 246 193 191 196 122 182 199 209 199 215 159 167 113 26 161 239 287 314 301 354 258 143 128 151 124 144
4 347 347 337 336 158 281 266 290 285 293 256 212 230 249 293 327 332 157 246 185 189 197 84 101 217 182 204 199 144 171 72 117 148 174 58 271 259 325 322 150 138 126 128 129
0 331 340 340 24 230 277 271 295 292 282 235 260 204 207 212 275 265 212 232 182 202 199 174 95 296 196 193 201 177 177 142 128 211 118 138 273 357 332 280 131 130 132 136 134
340 293 347 352 355 333 295 295 291 299 298 236 227 180 165 193 215 225 194 235 187 185 184 161 296 352 79 63 3 151 158 153 116 108 191 132 272 0 321 8 111 126 132 134 132
1 333 333 332 337 327 318 328 332 316 316 318 62 153 117 228 211 277 175 217 236 188 152 133 167 154 172 179 165 128 164 152 142 128 160 169 127 209 287 2 68 101 112 117 122
15 337 333 309 332 335 332 278 326 350 327 357 32 15 351 212 43 130 9 353 287 147 94 113 123 81 53 23 82 30 170 168 148 146 134 178 149 151 266 7 10 100 110 115 118
4 340 309 294 306 333 348 333 327 325 271 5 19 10 10 54 2 47 30 341 78 2 96 23 79 58 27 360 56 67 28 59 87 103 68 124 123 144 267 69 48 72 86 111 118
353 341 290 299 324 346 339 341 321 351 328 359 343 331 337 326 297 282 236 267 284 354 99 80 99 63 18 334 5 36 350 326 84 143 139 144 146 151 156 100 32 70 98 123 123